#timestamp,LO_Frequency,Hit,StdDev 
1681876815.3,286046999.2,N
1681876835.2,286046999.3,N
1681876855.0,286046999.0,N
1681876855.9,286046999.0,N
1681876875.8,286046996.9,N
1681876895.6,286046998.2,N
1681876915.4,286047001.1,N
1681876935.3,286047000.4,N
1681876955.1,286046998.3,N
1681876975.9,286046998.4,N
1681876995.7,286046998.7,N
1681877015.5,286046998.5,N
1681877035.4,286047000.6,N
1681877055.2,286047000.5,N
1681877075.0,286047000.3,N
1681877075.9,286047000.3,N
1681877095.8,286046999.9,N
1681877115.6,286047002.6,N
1681877135.5,286047002.6,N
1681877155.3,286047002.8,N
1681877175.1,286047002.8,N
1681877195.9,286047000.5,N
1681877215.7,286046999.7,N
1681877235.6,286046999.7,N
1681877255.4,286047000.3,N
1681877275.2,286047000.0,N
1681877295.1,286046998.2,N
1681877296.0,286046998.2,N
1681877315.8,286047002.3,N
1681877335.7,286047001.9,N
1681877355.5,286047000.9,N
1681877375.3,286046998.3,N
1681877395.2,286046998.7,N
1681877415.0,286047000.8,N
1681877415.9,286047000.8,N
1681877435.7,286047000.7,N
1681877455.6,286047000.0,N
1681877475.4,286047002.3,N
1681877495.3,286047002.6,N
1681877515.1,286047002.6,N
1681877535.9,286047001.2,N
1681877555.7,286046998.2,N
1681877575.5,286047000.5,N
1681877595.4,286047000.3,N
1681877615.2,286047000.2,N
1681877635.0,286047000.3,N
1681877635.9,286047000.3,N
1681877655.8,286047002.6,N
1681877675.6,286047001.6,N
1681877695.5,286047001.6,N
1681877715.3,286047001.3,N
1681877735.1,286047002.3,N
1681877755.9,286047002.6,N
1681877775.7,286047000.7,N
1681877795.6,286047000.8,N
1681877815.4,286047001.2,N
1681877835.2,286046998.6,N
1681877855.1,286046999.7,N
1681877856.0,286046999.7,N
1681877875.8,286046999.8,N
1681877895.6,286047000.2,N
1681877915.5,286046999.8,N
1681877935.3,286047000.2,N
1681877955.2,286046999.9,N
1681877975.9,286046999.9,N
1681877995.7,286047001.1,N
1681878015.6,286046998.2,N
1681878035.4,286046998.7,N
1681878055.2,286046998.9,N
1681878075.1,286046998.3,N
1681878076.0,286046998.3,N
1681878095.8,286047001.1,N
1681878115.7,286047001.1,N
1681878135.5,286047000.8,N
1681878155.3,286047000.9,N
1681878175.2,286047000.0,N
1681878195.0,286047000.0,N
1681878195.9,286047000.0,N
1681878215.7,286047001.0,N
1681878235.6,286047001.1,N
1681878255.4,286046998.1,N
1681878275.3,286047000.3,N
1681878295.1,286046999.7,N
1681878315.8,286046999.7,N
1681878335.7,286047000.6,N
1681878355.5,286047000.9,N
1681878375.4,286047000.9,N
1681878395.2,286047000.1,N
1681878415.0,286047000.3,N
1681878415.9,286047000.3,N
1681878435.8,286047000.5,N
1681878455.6,286047001.2,N
1681878475.4,286046998.2,N
1681878495.3,286046998.1,N
1681878515.1,286047000.6,N
1681878535.9,286046998.5,N
1681878555.7,286046998.6,N
1681878575.5,286047000.9,N
1681878595.4,286047000.2,N
1681878615.2,286047002.2,N
1681878635.0,286047001.6,N
1681878636.0,286047001.6,N
1681878655.8,286047002.5,N
1681878675.6,286047001.9,N
1681878695.5,286047001.6,N
1681878715.3,286047004.3,Y
1681878735.1,286047002.5,P
1681878755.9,286047002.1,N
1681878775.7,286046999.9,N
1681878795.6,286047000.2,N
1681878815.4,286047000.2,N
1681878835.2,286047002.2,N
1681878855.1,286047002.3,N
1681878856.0,286047002.3,N
1681878875.8,286046999.9,N
1681878895.6,286047002.4,N
1681878915.5,286047000.4,N
1681878935.3,286046998.3,N
1681878955.2,286046998.4,N
1681878975.9,286047001.2,N
1681879025.8,286046998.0,E
1681879035.7,286046999.2,N
1681879055.5,286046999.2,P
1681879075.4,286046999.5,P
1681879095.2,286046997.7,Y
1681879115.0,286046999.3,P
1681879115.9,286046999.3,P
1681879135.8,286046999.4,P
1681879155.6,286046999.2,Y
1681879175.5,286046999.2,P
1681879195.3,286046999.4,P
1681879215.2,286046996.9,P
1681879235.9,286046997.6,N
1681879255.7,286046995.7,Y
1681879275.6,286046997.9,P
1681879295.4,286046997.4,P
1681879315.2,286046997.2,P
1681879335.1,286046996.7,Y
1681879336.0,286046996.7,P
1681879355.8,286046998.6,N
1681879375.7,286046999.1,N
1681879395.5,286046998.4,N
1681879415.3,286046998.9,N
1681879435.2,286046998.4,N
1681879455.0,286046998.5,N
1681879455.9,286046998.5,N
1681879475.7,286047000.7,N
1681879495.6,286047000.9,N
1681879515.4,286047000.7,N
1681879535.3,286047001.0,N
1681879555.1,286047001.2,N
1681879575.8,286047000.8,N
1681879595.7,286047001.1,N
1681879615.5,286047000.7,N
1681879635.4,286046998.1,N
1681879655.2,286046998.8,N
1681879675.0,286046996.9,N
1681879675.9,286046996.9,N
1681879695.8,286046999.4,N
1681879715.6,286046999.3,N
1681879735.5,286046999.4,N
1681879755.3,286046999.5,N
1681879775.1,286046996.6,N
1681879795.9,286046999.2,N
1681879815.7,286046998.6,N
1681879835.5,286046998.5,N
1681879855.4,286046996.9,N
1681879875.2,286046997.3,N
1681879895.1,286046998.0,N
1681879896.0,286046998.0,N
1681879915.8,286046997.9,N
1681879935.6,286046995.0,Y
1681879955.5,286046996.7,P
1681879975.3,286046997.3,N
1681879995.1,286046996.7,P
1681880015.9,286046997.7,N
1681880035.7,286046997.3,Y
1681880055.6,286046998.5,P
1681880075.4,286047000.4,N
1681880095.2,286047000.7,N
1681880115.1,286046998.5,N
1681880116.0,286046998.5,N
1681880135.8,286047000.3,N
1681880155.6,286047000.2,N
1681880175.5,286047000.3,N
1681880195.3,286046998.6,N
1681880215.2,286046998.4,N
1681880235.9,286046998.6,N
1681880255.7,286047001.1,N
1681880275.6,286047000.8,N
1681880295.4,286047000.9,N
1681880315.2,286046998.7,N
1681880335.1,286046998.1,N
1681880336.0,286046998.1,N
1681880355.8,286046999.0,N
1681880375.7,286046999.3,N
1681880395.5,286046996.5,Y
